Content
SEND FEEDBACK

Daily
Averages
Monthly
Summary
United States of America

ST. LOUIS - SAINT LOUIS UNIVERSITY, MISSOURI


Home > North America > United States > Missouri
Elevation: 580 feet     Latitude: 38 38N     Longitude: 090 14W

WEATHER
 
SELECT A DAY
Number of Records: 186,236;   Date Range: 1/1/95 - 8/28/14
 
SHARE

PRINT THIS DATA

[ ← Previous Day ]
WEATHER ALMANAC - MAY 1, 2013
[ Next Day → ]
[ °C ]   °F
Weather ElementAverageHighLow
Temperature70.2 °F82 °F (2:53 pm)53.1 °F (5:53 am)
Dewpoint56.6 °F61 °F (5:53 pm)51.1 °F (5:53 am)
Humidity64.9 %93 % (3:53 am)39 % (11:53 am)
Barometer30.04 in30.08 in (11:53 pm)29.96 in (1:53 am)
Wind Speed4.5 mph12.7 mph (4:53 pm)
Weather ElementAverage
Visibility9.9 mi
Wind DirectionE (90 °)

Weather ElementTotal
Precipitation---
Cooling Degree Days2.6 (Base 65)
Growing Degree Days17.6 (Base 50)
Averaged from 21 records on May 1, 2013
WEATHER CONDITIONS BREAKOUT
WIND DIRECTION BREAKOUT
WEATHER BY HOUR - MAY 1, 2013
[ °C ]   °F
Local TimeTemperatureDewpointHumidityBarometerVisibilityWind DirectionWind SpeedGust SpeedPrecipitationEventsConditions
1:53 AM57.0 °F53.1 °F87 %29.96 in10.0 miCalmClear
2:53 AM57.0 °F53.1 °F87 %29.96 in10.0 miCalmClear
3:53 AM55.0 °F53.1 °F93 %29.98 in10.0 miCalmClear
4:53 AM55.9 °F53.1 °F90 %30.00 in10.0 miCalmClear
5:53 AM53.1 °F51.1 °F93 %30.02 in7.0 miCalmClear
7:53 AM63.0 °F55.9 °F78 %30.05 in10.0 miSSE (150°)4.6 mphClear
8:53 AM70.0 °F57.9 °F65 %30.05 in10.0 miSE (130°)3.5 mphClear
9:53 AM73.9 °F57.9 °F57 %30.06 in10.0 miSouth (180°)3.5 mphClear
11:53 AM80.1 °F53.1 °F39 %30.06 in10.0 miVariable3.5 mphScattered Clouds
12:53 PM80.1 °F55.9 °F43 %30.06 in10.0 miSSE (160°)8.1 mphPartly Cloudy
1:53 PM80.1 °F55.9 °F43 %30.06 in10.0 miSSE (150°)8.1 mphMostly Cloudy
2:53 PM82.0 °F57.0 °F42 %30.05 in10.0 miSE (140°)10.4 mphClear
3:53 PM82.0 °F57.9 °F44 %30.04 in10.0 miSSE (150°)8.1 mphPartly Cloudy
4:53 PM81.0 °F60.1 °F49 %30.04 in10.0 miSE (140°)12.7 mphScattered Clouds
5:53 PM81.0 °F61.0 °F50 %30.04 in10.0 miSE (140°)10.4 mphClear
6:53 PM78.1 °F60.1 °F54 %30.04 in10.0 miSE (130°)8.1 mphScattered Clouds
7:53 PM73.9 °F59.0 °F59 %30.05 in10.0 miSE (140°)5.8 mphMostly Cloudy
8:53 PM73.0 °F57.9 °F59 %30.06 in10.0 miSE (140°)4.6 mphClear
9:53 PM70.0 °F57.9 °F65 %30.07 in10.0 miSE (140°)3.5 mphClear
10:53 PM64.9 °F59.0 °F81 %30.07 in10.0 miCalmClear
11:53 PM63.0 °F57.9 °F84 %30.08 in10.0 miCalmClear
Hourly data recorded from KCPS, located miles away from St. Louis - Saint Louis University, Missouri







STORIES FROM OUR PARTNERS